owner,sensor,date,latitude,longitude,vertical_datum,sea_water_practical_salinity,qcFlag 
WAVCIS,ioos:station:WAVCIS:CSI16:1,2011-06-01T00:00:00Z,29.4012,-89.0355,1.0,18.174,11111222 
WAVCIS,ioos:station:WAVCIS:CSI16:1,2011-06-01T00:15:00Z,29.4012,-89.0355,1.0,18.548,11111222 
WAVCIS,ioos:station:WAVCIS:CSI16:1,2011-06-01T00:30:00Z,29.4012,-89.0355,1.0,19.687,11111222 
WAVCIS,ioos:station:WAVCIS:CSI16:1,2011-06-01T00:45:00Z,29.4012,-89.0355,1.0,20.15,11111222 
WAVCIS,ioos:station:WAVCIS:CSI16:1,2011-06-01T01:00:00Z,29.4012,-89.0355,1.0,20.648,11111222 
WAVCIS,ioos:station:WAVCIS:CSI16:1,2011-06-01T01:15:00Z,29.4012,-89.0355,1.0,21.713,11111222 
WAVCIS,ioos:station:WAVCIS:CSI16:1,2011-06-01T01:30:00Z,29.4012,-89.0355,1.0,21.405,11111222 
WAVCIS,ioos:station:WAVCIS:CSI16:1,2011-06-01T01:45:00Z,29.4012,-89.0355,1.0,21.272,11111222 
WAVCIS,ioos:station:WAVCIS:CSI16:1,2011-06-01T02:00:00Z,29.4012,-89.0355,1.0,21.043,11111222 
WAVCIS,ioos:station:WAVCIS:CSI16:1,2011-06-01T02:15:00Z,29.4012,-89.0355,1.0,21.158,11111222 
WAVCIS,ioos:station:WAVCIS:CSI16:1,2011-06-01T02:30:00Z,29.4012,-89.0355,1.0,20.912,11111222 
WAVCIS,ioos:station:WAVCIS:CSI16:1,2011-06-01T02:45:00Z,29.4012,-89.0355,1.0,21.141,11111222 
WAVCIS,ioos:station:WAVCIS:CSI16:1,2011-06-01T03:00:00Z,29.4012,-89.0355,1.0,21.258,11111222 
WAVCIS,ioos:station:WAVCIS:CSI16:1,2011-06-01T03:15:00Z,29.4012,-89.0355,1.0,20.977,11111222 
WAVCIS,ioos:station:WAVCIS:CSI16:1,2011-06-01T03:30:00Z,29.4012,-89.0355,1.0,20.886,11111222 
WAVCIS,ioos:station:WAVCIS:CSI16:1,2011-06-01T03:45:00Z,29.4012,-89.0355,1.0,20.857,11111222 
WAVCIS,ioos:station:WAVCIS:CSI16:1,2011-06-01T04:00:00Z,29.4012,-89.0355,1.0,20.614,11111222 
WAVCIS,ioos:station:WAVCIS:CSI16:1,2011-06-01T04:15:00Z,29.4012,-89.0355,1.0,20.744,11111222 
WAVCIS,ioos:station:WAVCIS:CSI16:1,2011-06-01T04:30:00Z,29.4012,-89.0355,1.0,20.692,11111222 
WAVCIS,ioos:station:WAVCIS:CSI16:1,2011-06-01T04:45:00Z,29.4012,-89.0355,1.0,20.669,11111222 
WAVCIS,ioos:station:WAVCIS:CSI16:1,2011-06-01T05:00:00Z,29.4012,-89.0355,1.0,20.656,11111222 
WAVCIS,ioos:station:WAVCIS:CSI16:1,2011-06-01T05:15:00Z,29.4012,-89.0355,1.0,20.661,11111222 
WAVCIS,ioos:station:WAVCIS:CSI16:1,2011-06-01T05:30:00Z,29.4012,-89.0355,1.0,20.733,11111222 
WAVCIS,ioos:station:WAVCIS:CSI16:1,2011-06-01T05:45:00Z,29.4012,-89.0355,1.0,20.805,11111222 
WAVCIS,ioos:station:WAVCIS:CSI16:1,2011-06-01T06:00:00Z,29.4012,-89.0355,1.0,20.827,11111222 
WAVCIS,ioos:station:WAVCIS:CSI16:1,2011-06-01T06:15:00Z,29.4012,-89.0355,1.0,20.83,11111222 
WAVCIS,ioos:station:WAVCIS:CSI16:1,2011-06-01T06:30:00Z,29.4012,-89.0355,1.0,20.867,11111222 
WAVCIS,ioos:station:WAVCIS:CSI16:1,2011-06-01T06:45:00Z,29.4012,-89.0355,1.0,20.968,11111222 
WAVCIS,ioos:station:WAVCIS:CSI16:1,2011-06-01T07:00:00Z,29.4012,-89.0355,1.0,21.033,11111222 
WAVCIS,ioos:station:WAVCIS:CSI16:1,2011-06-01T07:15:00Z,29.4012,-89.0355,1.0,21.032,11111222 
WAVCIS,ioos:station:WAVCIS:CSI16:1,2011-06-01T07:30:00Z,29.4012,-89.0355,1.0,21.101,11111222 
WAVCIS,ioos:station:WAVCIS:CSI16:1,2011-06-01T07:45:00Z,29.4012,-89.0355,1.0,21.249,11111222 
WAVCIS,ioos:station:WAVCIS:CSI16:1,2011-06-01T08:00:00Z,29.4012,-89.0355,1.0,21.359,11111222 
WAVCIS,ioos:station:WAVCIS:CSI16:1,2011-06-01T08:15:00Z,29.4012,-89.0355,1.0,21.552,11111222 
WAVCIS,ioos:station:WAVCIS:CSI16:1,2011-06-01T08:30:00Z,29.4012,-89.0355,1.0,21.92,11111222 
WAVCIS,ioos:station:WAVCIS:CSI16:1,2011-06-01T08:45:00Z,29.4012,-89.0355,1.0,22.314,11111222 
WAVCIS,ioos:station:WAVCIS:CSI16:1,2011-06-01T09:00:00Z,29.4012,-89.0355,1.0,22.263,11111222 
WAVCIS,ioos:station:WAVCIS:CSI16:1,2011-06-01T09:15:00Z,29.4012,-89.0355,1.0,22.316,11111222 
WAVCIS,ioos:station:WAVCIS:CSI16:1,2011-06-01T09:30:00Z,29.4012,-89.0355,1.0,22.357,11111222 
WAVCIS,ioos:station:WAVCIS:CSI16:1,2011-06-01T09:45:00Z,29.4012,-89.0355,1.0,22.569,11111222 
WAVCIS,ioos:station:WAVCIS:CSI16:1,2011-06-01T10:00:00Z,29.4012,-89.0355,1.0,22.124,11111222 
WAVCIS,ioos:station:WAVCIS:CSI16:1,2011-06-01T10:15:00Z,29.4012,-89.0355,1.0,21.637,11111222 
WAVCIS,ioos:station:WAVCIS:CSI16:1,2011-06-01T10:30:00Z,29.4012,-89.0355,1.0,21.479,11111222 
WAVCIS,ioos:station:WAVCIS:CSI16:1,2011-06-01T10:45:00Z,29.4012,-89.0355,1.0,21.899,11111222 
WAVCIS,ioos:station:WAVCIS:CSI16:1,2011-06-01T11:00:00Z,29.4012,-89.0355,1.0,21.875,11111222 
WAVCIS,ioos:station:WAVCIS:CSI16:1,2011-06-01T11:15:00Z,29.4012,-89.0355,1.0,22.247,11111222 
WAVCIS,ioos:station:WAVCIS:CSI16:1,2011-06-01T11:30:00Z,29.4012,-89.0355,1.0,22.697,11111222 
WAVCIS,ioos:station:WAVCIS:CSI16:1,2011-06-01T11:45:00Z,29.4012,-89.0355,1.0,22.254,11111222 
WAVCIS,ioos:station:WAVCIS:CSI16:1,2011-06-01T12:00:00Z,29.4012,-89.0355,1.0,22.253,11111222 
WAVCIS,ioos:station:WAVCIS:CSI16:1,2011-06-01T12:15:00Z,29.4012,-89.0355,1.0,22.434,11111222 
WAVCIS,ioos:station:WAVCIS:CSI16:1,2011-06-01T12:30:00Z,29.4012,-89.0355,1.0,22.321,11111222 
WAVCIS,ioos:station:WAVCIS:CSI16:1,2011-06-01T12:45:00Z,29.4012,-89.0355,1.0,22.826,11111222 
WAVCIS,ioos:station:WAVCIS:CSI16:1,2011-06-01T13:00:00Z,29.4012,-89.0355,1.0,22.99,11111222 
WAVCIS,ioos:station:WAVCIS:CSI16:1,2011-06-01T13:15:00Z,29.4012,-89.0355,1.0,23.13,11111222 
WAVCIS,ioos:station:WAVCIS:CSI16:1,2011-06-01T13:30:00Z,29.4012,-89.0355,1.0,23.204,11111222 
WAVCIS,ioos:station:WAVCIS:CSI16:1,2011-06-01T13:45:00Z,29.4012,-89.0355,1.0,23.36,11111222 
WAVCIS,ioos:station:WAVCIS:CSI16:1,2011-06-01T14:00:00Z,29.4012,-89.0355,1.0,23.056,11111222 
WAVCIS,ioos:station:WAVCIS:CSI16:1,2011-06-01T14:15:00Z,29.4012,-89.0355,1.0,22.836,11111222 
WAVCIS,ioos:station:WAVCIS:CSI16:1,2011-06-01T14:30:00Z,29.4012,-89.0355,1.0,23.055,11111222 
WAVCIS,ioos:station:WAVCIS:CSI16:1,2011-06-01T14:45:00Z,29.4012,-89.0355,1.0,22.82,11111222 
WAVCIS,ioos:station:WAVCIS:CSI16:1,2011-06-01T15:00:00Z,29.4012,-89.0355,1.0,22.648,11111222 
WAVCIS,ioos:station:WAVCIS:CSI16:1,2011-06-01T15:15:00Z,29.4012,-89.0355,1.0,22.322,11111222 
WAVCIS,ioos:station:WAVCIS:CSI16:1,2011-06-01T15:30:00Z,29.4012,-89.0355,1.0,22.115,11111222 
WAVCIS,ioos:station:WAVCIS:CSI16:1,2011-06-01T15:45:00Z,29.4012,-89.0355,1.0,22.886,11111222 
WAVCIS,ioos:station:WAVCIS:CSI16:1,2011-06-01T16:00:00Z,29.4012,-89.0355,1.0,22.302,11111222 
WAVCIS,ioos:station:WAVCIS:CSI16:1,2011-06-01T16:15:00Z,29.4012,-89.0355,1.0,20.846,11111222 
WAVCIS,ioos:station:WAVCIS:CSI16:1,2011-06-01T16:30:00Z,29.4012,-89.0355,1.0,20.742,11111222 
WAVCIS,ioos:station:WAVCIS:CSI16:1,2011-06-01T16:45:00Z,29.4012,-89.0355,1.0,20.731,11111222 
WAVCIS,ioos:station:WAVCIS:CSI16:1,2011-06-01T17:00:00Z,29.4012,-89.0355,1.0,20.774,11111222 
WAVCIS,ioos:station:WAVCIS:CSI16:1,2011-06-01T17:15:00Z,29.4012,-89.0355,1.0,20.735,11111222 
WAVCIS,ioos:station:WAVCIS:CSI16:1,2011-06-01T17:30:00Z,29.4012,-89.0355,1.0,21.375,11111222 
WAVCIS,ioos:station:WAVCIS:CSI16:1,2011-06-01T17:45:00Z,29.4012,-89.0355,1.0,20.996,11111222 
WAVCIS,ioos:station:WAVCIS:CSI16:1,2011-06-01T18:00:00Z,29.4012,-89.0355,1.0,20.979,11111222 
WAVCIS,ioos:station:WAVCIS:CSI16:1,2011-06-01T18:15:00Z,29.4012,-89.0355,1.0,20.871,11111222 
WAVCIS,ioos:station:WAVCIS:CSI16:1,2011-06-01T18:30:00Z,29.4012,-89.0355,1.0,20.757,11111222 
WAVCIS,ioos:station:WAVCIS:CSI16:1,2011-06-01T18:45:00Z,29.4012,-89.0355,1.0,20.382,11111222 
WAVCIS,ioos:station:WAVCIS:CSI16:1,2011-06-01T19:00:00Z,29.4012,-89.0355,1.0,16.84,11111222 
WAVCIS,ioos:station:WAVCIS:CSI16:1,2011-06-01T19:15:00Z,29.4012,-89.0355,1.0,14.306,11111222 
WAVCIS,ioos:station:WAVCIS:CSI16:1,2011-06-01T19:30:00Z,29.4012,-89.0355,1.0,13.299,11111222 
WAVCIS,ioos:station:WAVCIS:CSI16:1,2011-06-01T19:45:00Z,29.4012,-89.0355,1.0,11.813,11111222 
WAVCIS,ioos:station:WAVCIS:CSI16:1,2011-06-01T20:00:00Z,29.4012,-89.0355,1.0,10.861,11111222 
WAVCIS,ioos:station:WAVCIS:CSI16:1,2011-06-01T20:15:00Z,29.4012,-89.0355,1.0,10.578,11111222 
WAVCIS,ioos:station:WAVCIS:CSI16:1,2011-06-01T20:30:00Z,29.4012,-89.0355,1.0,7.817,11111222 
WAVCIS,ioos:station:WAVCIS:CSI16:1,2011-06-01T20:45:00Z,29.4012,-89.0355,1.0,8.107,11111222 
WAVCIS,ioos:station:WAVCIS:CSI16:1,2011-06-01T21:00:00Z,29.4012,-89.0355,1.0,8.398,11111222 
WAVCIS,ioos:station:WAVCIS:CSI16:1,2011-06-01T21:15:00Z,29.4012,-89.0355,1.0,8.285,11111222 
WAVCIS,ioos:station:WAVCIS:CSI16:1,2011-06-01T21:30:00Z,29.4012,-89.0355,1.0,8.282,11111222 
WAVCIS,ioos:station:WAVCIS:CSI16:1,2011-06-01T21:45:00Z,29.4012,-89.0355,1.0,8.573,11111222 
WAVCIS,ioos:station:WAVCIS:CSI16:1,2011-06-01T22:00:00Z,29.4012,-89.0355,1.0,8.94,11111222 
WAVCIS,ioos:station:WAVCIS:CSI16:1,2011-06-01T22:15:00Z,29.4012,-89.0355,1.0,9.015,11111222 
WAVCIS,ioos:station:WAVCIS:CSI16:1,2011-06-01T22:30:00Z,29.4012,-89.0355,1.0,9.813,11111222 
WAVCIS,ioos:station:WAVCIS:CSI16:1,2011-06-01T22:45:00Z,29.4012,-89.0355,1.0,14.24,11111222 
WAVCIS,ioos:station:WAVCIS:CSI16:1,2011-06-01T23:00:00Z,29.4012,-89.0355,1.0,13.067,11111222 
WAVCIS,ioos:station:WAVCIS:CSI16:1,2011-06-01T23:15:00Z,29.4012,-89.0355,1.0,13.422,11111222 
WAVCIS,ioos:station:WAVCIS:CSI16:1,2011-06-01T23:30:00Z,29.4012,-89.0355,1.0,15.411,11111222 
WAVCIS,ioos:station:WAVCIS:CSI16:1,2011-06-01T23:45:00Z,29.4012,-89.0355,1.0,15.409,11111222 
WAVCIS,ioos:station:WAVCIS:CSI16:1,2011-06-02T00:00:00Z,29.4012,-89.0355,1.0,16.344,11111222 
WAVCIS,ioos:station:WAVCIS:CSI16:1,2011-06-02T00:15:00Z,29.4012,-89.0355,1.0,16.823,11111222 
WAVCIS,ioos:station:WAVCIS:CSI16:1,2011-06-02T00:30:00Z,29.4012,-89.0355,1.0,16.635,11111222 
WAVCIS,ioos:station:WAVCIS:CSI16:1,2011-06-02T00:45:00Z,29.4012,-89.0355,1.0,17.153,11111222 
WAVCIS,ioos:station:WAVCIS:CSI16:1,2011-06-02T01:00:00Z,29.4012,-89.0355,1.0,17.307,11111222 
WAVCIS,ioos:station:WAVCIS:CSI16:1,2011-06-02T01:15:00Z,29.4012,-89.0355,1.0,17.29,11111222 
WAVCIS,ioos:station:WAVCIS:CSI16:1,2011-06-02T01:30:00Z,29.4012,-89.0355,1.0,17.833,11111222 
WAVCIS,ioos:station:WAVCIS:CSI16:1,2011-06-02T01:45:00Z,29.4012,-89.0355,1.0,18.17,11111222 
WAVCIS,ioos:station:WAVCIS:CSI16:1,2011-06-02T02:00:00Z,29.4012,-89.0355,1.0,18.449,11111222 
WAVCIS,ioos:station:WAVCIS:CSI16:1,2011-06-02T02:15:00Z,29.4012,-89.0355,1.0,18.55,11111222 
WAVCIS,ioos:station:WAVCIS:CSI16:1,2011-06-02T02:30:00Z,29.4012,-89.0355,1.0,18.933,11111222 
WAVCIS,ioos:station:WAVCIS:CSI16:1,2011-06-02T02:45:00Z,29.4012,-89.0355,1.0,19.037,11111222 
WAVCIS,ioos:station:WAVCIS:CSI16:1,2011-06-02T03:00:00Z,29.4012,-89.0355,1.0,19.021,11111222 
WAVCIS,ioos:station:WAVCIS:CSI16:1,2011-06-02T03:15:00Z,29.4012,-89.0355,1.0,18.857,11111222 
WAVCIS,ioos:station:WAVCIS:CSI16:1,2011-06-02T03:30:00Z,29.4012,-89.0355,1.0,19.265,11111222 
WAVCIS,ioos:station:WAVCIS:CSI16:1,2011-06-02T03:45:00Z,29.4012,-89.0355,1.0,19.185,11111222 
WAVCIS,ioos:station:WAVCIS:CSI16:1,2011-06-02T04:00:00Z,29.4012,-89.0355,1.0,19.028,11111222 
WAVCIS,ioos:station:WAVCIS:CSI16:1,2011-06-02T04:15:00Z,29.4012,-89.0355,1.0,19.13,11111222 
WAVCIS,ioos:station:WAVCIS:CSI16:1,2011-06-02T04:30:00Z,29.4012,-89.0355,1.0,19.056,11111222 
WAVCIS,ioos:station:WAVCIS:CSI16:1,2011-06-02T04:45:00Z,29.4012,-89.0355,1.0,18.903,11111222 
WAVCIS,ioos:station:WAVCIS:CSI16:1,2011-06-02T05:00:00Z,29.4012,-89.0355,1.0,18.883,11111222 
WAVCIS,ioos:station:WAVCIS:CSI16:1,2011-06-02T05:15:00Z,29.4012,-89.0355,1.0,18.824,11111222 
WAVCIS,ioos:station:WAVCIS:CSI16:1,2011-06-02T05:30:00Z,29.4012,-89.0355,1.0,18.948,11111222 
WAVCIS,ioos:station:WAVCIS:CSI16:1,2011-06-02T05:45:00Z,29.4012,-89.0355,1.0,18.997,11111222 
WAVCIS,ioos:station:WAVCIS:CSI16:1,2011-06-02T06:00:00Z,29.4012,-89.0355,1.0,19.191,11111222 
WAVCIS,ioos:station:WAVCIS:CSI16:1,2011-06-02T06:15:00Z,29.4012,-89.0355,1.0,19.354,11111222 
WAVCIS,ioos:station:WAVCIS:CSI16:1,2011-06-02T06:30:00Z,29.4012,-89.0355,1.0,19.552,11111222 
WAVCIS,ioos:station:WAVCIS:CSI16:1,2011-06-02T06:45:00Z,29.4012,-89.0355,1.0,19.663,11111222 
WAVCIS,ioos:station:WAVCIS:CSI16:1,2011-06-02T07:00:00Z,29.4012,-89.0355,1.0,19.695,11111222 
WAVCIS,ioos:station:WAVCIS:CSI16:1,2011-06-02T07:15:00Z,29.4012,-89.0355,1.0,19.886,11111222 
WAVCIS,ioos:station:WAVCIS:CSI16:1,2011-06-02T07:30:00Z,29.4012,-89.0355,1.0,20.132,11111222 
WAVCIS,ioos:station:WAVCIS:CSI16:1,2011-06-02T07:45:00Z,29.4012,-89.0355,1.0,20.433,11111222 
WAVCIS,ioos:station:WAVCIS:CSI16:1,2011-06-02T08:00:00Z,29.4012,-89.0355,1.0,20.737,11111222 
WAVCIS,ioos:station:WAVCIS:CSI16:1,2011-06-02T08:15:00Z,29.4012,-89.0355,1.0,20.824,11111222 
WAVCIS,ioos:station:WAVCIS:CSI16:1,2011-06-02T08:30:00Z,29.4012,-89.0355,1.0,21.001,11111222 
WAVCIS,ioos:station:WAVCIS:CSI16:1,2011-06-02T08:45:00Z,29.4012,-89.0355,1.0,20.984,11111222 
WAVCIS,ioos:station:WAVCIS:CSI16:1,2011-06-02T09:00:00Z,29.4012,-89.0355,1.0,20.855,11111222 
WAVCIS,ioos:station:WAVCIS:CSI16:1,2011-06-02T09:15:00Z,29.4012,-89.0355,1.0,20.652,11111222 
WAVCIS,ioos:station:WAVCIS:CSI16:1,2011-06-02T09:30:00Z,29.4012,-89.0355,1.0,20.719,11111222 
WAVCIS,ioos:station:WAVCIS:CSI16:1,2011-06-02T09:45:00Z,29.4012,-89.0355,1.0,20.868,11111222 
WAVCIS,ioos:station:WAVCIS:CSI16:1,2011-06-02T10:00:00Z,29.4012,-89.0355,1.0,21.013,11111222 
WAVCIS,ioos:station:WAVCIS:CSI16:1,2011-06-02T10:15:00Z,29.4012,-89.0355,1.0,21.095,11111222 
WAVCIS,ioos:station:WAVCIS:CSI16:1,2011-06-02T10:30:00Z,29.4012,-89.0355,1.0,21.178,11111222 
WAVCIS,ioos:station:WAVCIS:CSI16:1,2011-06-02T10:45:00Z,29.4012,-89.0355,1.0,21.03,11111222 
WAVCIS,ioos:station:WAVCIS:CSI16:1,2011-06-02T11:00:00Z,29.4012,-89.0355,1.0,20.752,11111222 
WAVCIS,ioos:station:WAVCIS:CSI16:1,2011-06-02T11:15:00Z,29.4012,-89.0355,1.0,20.7,11111222 
WAVCIS,ioos:station:WAVCIS:CSI16:1,2011-06-02T11:30:00Z,29.4012,-89.0355,1.0,20.437,11111222 
WAVCIS,ioos:station:WAVCIS:CSI16:1,2011-06-02T11:45:00Z,29.4012,-89.0355,1.0,20.289,11111222 
WAVCIS,ioos:station:WAVCIS:CSI16:1,2011-06-02T12:00:00Z,29.4012,-89.0355,1.0,20.315,11111222 
WAVCIS,ioos:station:WAVCIS:CSI16:1,2011-06-02T12:15:00Z,29.4012,-89.0355,1.0,20.347,11111222 
WAVCIS,ioos:station:WAVCIS:CSI16:1,2011-06-02T12:30:00Z,29.4012,-89.0355,1.0,20.32,11111222 
WAVCIS,ioos:station:WAVCIS:CSI16:1,2011-06-02T12:45:00Z,29.4012,-89.0355,1.0,20.369,11111222 
WAVCIS,ioos:station:WAVCIS:CSI16:1,2011-06-02T13:00:00Z,29.4012,-89.0355,1.0,20.541,11111222 
WAVCIS,ioos:station:WAVCIS:CSI16:1,2011-06-02T13:15:00Z,29.4012,-89.0355,1.0,20.56,11111222 
WAVCIS,ioos:station:WAVCIS:CSI16:1,2011-06-02T13:30:00Z,29.4012,-89.0355,1.0,20.539,11111222 
WAVCIS,ioos:station:WAVCIS:CSI16:1,2011-06-02T13:45:00Z,29.4012,-89.0355,1.0,20.779,11111222 
WAVCIS,ioos:station:WAVCIS:CSI16:1,2011-06-02T14:00:00Z,29.4012,-89.0355,1.0,20.934,11111222 
WAVCIS,ioos:station:WAVCIS:CSI16:1,2011-06-02T14:15:00Z,29.4012,-89.0355,1.0,20.602,11111222 
WAVCIS,ioos:station:WAVCIS:CSI16:1,2011-06-02T14:30:00Z,29.4012,-89.0355,1.0,20.48,11111222 
WAVCIS,ioos:station:WAVCIS:CSI16:1,2011-06-02T14:45:00Z,29.4012,-89.0355,1.0,20.47,11111222 
WAVCIS,ioos:station:WAVCIS:CSI16:1,2011-06-02T15:00:00Z,29.4012,-89.0355,1.0,20.501,11111222 
WAVCIS,ioos:station:WAVCIS:CSI16:1,2011-06-02T15:15:00Z,29.4012,-89.0355,1.0,20.557,11111222 
WAVCIS,ioos:station:WAVCIS:CSI16:1,2011-06-02T15:30:00Z,29.4012,-89.0355,1.0,20.641,11111222 
WAVCIS,ioos:station:WAVCIS:CSI16:1,2011-06-02T15:45:00Z,29.4012,-89.0355,1.0,16.692,11111222 
WAVCIS,ioos:station:WAVCIS:CSI16:1,2011-06-02T16:00:00Z,29.4012,-89.0355,1.0,15.18,11111222 
WAVCIS,ioos:station:WAVCIS:CSI16:1,2011-06-02T16:15:00Z,29.4012,-89.0355,1.0,15.191,11111222 
WAVCIS,ioos:station:WAVCIS:CSI16:1,2011-06-02T16:30:00Z,29.4012,-89.0355,1.0,14.376,11111222 
WAVCIS,ioos:station:WAVCIS:CSI16:1,2011-06-02T16:45:00Z,29.4012,-89.0355,1.0,13.307,11111222 
WAVCIS,ioos:station:WAVCIS:CSI16:1,2011-06-02T17:00:00Z,29.4012,-89.0355,1.0,13.082,11111222 
WAVCIS,ioos:station:WAVCIS:CSI16:1,2011-06-02T17:15:00Z,29.4012,-89.0355,1.0,13.281,11111222 
WAVCIS,ioos:station:WAVCIS:CSI16:1,2011-06-02T17:30:00Z,29.4012,-89.0355,1.0,13.598,11111222 
WAVCIS,ioos:station:WAVCIS:CSI16:1,2011-06-02T17:45:00Z,29.4012,-89.0355,1.0,13.68,11111222 
WAVCIS,ioos:station:WAVCIS:CSI16:1,2011-06-02T18:00:00Z,29.4012,-89.0355,1.0,12.803,11111222 
WAVCIS,ioos:station:WAVCIS:CSI16:1,2011-06-02T18:15:00Z,29.4012,-89.0355,1.0,13.053,11111222 
WAVCIS,ioos:station:WAVCIS:CSI16:1,2011-06-02T18:30:00Z,29.4012,-89.0355,1.0,15.618,11111222 
WAVCIS,ioos:station:WAVCIS:CSI16:1,2011-06-02T18:45:00Z,29.4012,-89.0355,1.0,14.18,11111222 
WAVCIS,ioos:station:WAVCIS:CSI16:1,2011-06-02T19:00:00Z,29.4012,-89.0355,1.0,16.916,11111222 
WAVCIS,ioos:station:WAVCIS:CSI16:1,2011-06-02T19:15:00Z,29.4012,-89.0355,1.0,18.224,11111222 
WAVCIS,ioos:station:WAVCIS:CSI16:1,2011-06-02T19:30:00Z,29.4012,-89.0355,1.0,18.445,11111222 
WAVCIS,ioos:station:WAVCIS:CSI16:1,2011-06-02T19:45:00Z,29.4012,-89.0355,1.0,19.041,11111222 
WAVCIS,ioos:station:WAVCIS:CSI16:1,2011-06-02T20:00:00Z,29.4012,-89.0355,1.0,18.757,11111222 
WAVCIS,ioos:station:WAVCIS:CSI16:1,2011-06-02T20:15:00Z,29.4012,-89.0355,1.0,18.78,11111222 
WAVCIS,ioos:station:WAVCIS:CSI16:1,2011-06-02T20:30:00Z,29.4012,-89.0355,1.0,18.528,11111222 
WAVCIS,ioos:station:WAVCIS:CSI16:1,2011-06-02T20:45:00Z,29.4012,-89.0355,1.0,19.583,11111222 
WAVCIS,ioos:station:WAVCIS:CSI16:1,2011-06-02T21:00:00Z,29.4012,-89.0355,1.0,16.833,11111222 
WAVCIS,ioos:station:WAVCIS:CSI16:1,2011-06-02T21:15:00Z,29.4012,-89.0355,1.0,15.371,11111222 
WAVCIS,ioos:station:WAVCIS:CSI16:1,2011-06-02T21:30:00Z,29.4012,-89.0355,1.0,16.05,11111222 
WAVCIS,ioos:station:WAVCIS:CSI16:1,2011-06-02T21:45:00Z,29.4012,-89.0355,1.0,15.57,11111222 
WAVCIS,ioos:station:WAVCIS:CSI16:1,2011-06-02T22:00:00Z,29.4012,-89.0355,1.0,15.048,11111222 
WAVCIS,ioos:station:WAVCIS:CSI16:1,2011-06-02T22:15:00Z,29.4012,-89.0355,1.0,14.033,11111222 
WAVCIS,ioos:station:WAVCIS:CSI16:1,2011-06-02T22:30:00Z,29.4012,-89.0355,1.0,13.852,11111222 
WAVCIS,ioos:station:WAVCIS:CSI16:1,2011-06-02T22:45:00Z,29.4012,-89.0355,1.0,14.281,11111222 
WAVCIS,ioos:station:WAVCIS:CSI16:1,2011-06-02T23:00:00Z,29.4012,-89.0355,1.0,14.512,11111222 
WAVCIS,ioos:station:WAVCIS:CSI16:1,2011-06-02T23:15:00Z,29.4012,-89.0355,1.0,14.721,11111222 
WAVCIS,ioos:station:WAVCIS:CSI16:1,2011-06-02T23:30:00Z,29.4012,-89.0355,1.0,14.288,11111222 
WAVCIS,ioos:station:WAVCIS:CSI16:1,2011-06-02T23:45:00Z,29.4012,-89.0355,1.0,15.279,11111222 
WAVCIS,ioos:station:WAVCIS:CSI16:1,2011-06-03T00:00:00Z,29.4012,-89.0355,1.0,15.297,11111222 
WAVCIS,ioos:station:WAVCIS:CSI16:1,2011-06-03T00:15:00Z,29.4012,-89.0355,1.0,14.967,11111222 
WAVCIS,ioos:station:WAVCIS:CSI16:1,2011-06-03T00:30:00Z,29.4012,-89.0355,1.0,15.689,11111222 
WAVCIS,ioos:station:WAVCIS:CSI16:1,2011-06-03T00:45:00Z,29.4012,-89.0355,1.0,16.974,11111222 
WAVCIS,ioos:station:WAVCIS:CSI16:1,2011-06-03T01:00:00Z,29.4012,-89.0355,1.0,16.842,11111222 
WAVCIS,ioos:station:WAVCIS:CSI16:1,2011-06-03T01:15:00Z,29.4012,-89.0355,1.0,16.912,11111222 
WAVCIS,ioos:station:WAVCIS:CSI16:1,2011-06-03T01:30:00Z,29.4012,-89.0355,1.0,15.811,11111222 
WAVCIS,ioos:station:WAVCIS:CSI16:1,2011-06-03T01:45:00Z,29.4012,-89.0355,1.0,16.361,11111222 
WAVCIS,ioos:station:WAVCIS:CSI16:1,2011-06-03T02:00:00Z,29.4012,-89.0355,1.0,15.001,11111222 
WAVCIS,ioos:station:WAVCIS:CSI16:1,2011-06-03T02:15:00Z,29.4012,-89.0355,1.0,12.904,11111222 
WAVCIS,ioos:station:WAVCIS:CSI16:1,2011-06-03T02:30:00Z,29.4012,-89.0355,1.0,12.628,11111222 
WAVCIS,ioos:station:WAVCIS:CSI16:1,2011-06-03T02:45:00Z,29.4012,-89.0355,1.0,12.74,11111222 
WAVCIS,ioos:station:WAVCIS:CSI16:1,2011-06-03T03:00:00Z,29.4012,-89.0355,1.0,10.762,11111222 
WAVCIS,ioos:station:WAVCIS:CSI16:1,2011-06-03T03:15:00Z,29.4012,-89.0355,1.0,11.953,11111222 
WAVCIS,ioos:station:WAVCIS:CSI16:1,2011-06-03T03:30:00Z,29.4012,-89.0355,1.0,11.245,11111222 
WAVCIS,ioos:station:WAVCIS:CSI16:1,2011-06-03T03:45:00Z,29.4012,-89.0355,1.0,11.438,11111222 
WAVCIS,ioos:station:WAVCIS:CSI16:1,2011-06-03T04:00:00Z,29.4012,-89.0355,1.0,11.516,11111222 
WAVCIS,ioos:station:WAVCIS:CSI16:1,2011-06-03T04:15:00Z,29.4012,-89.0355,1.0,10.894,11111222 
WAVCIS,ioos:station:WAVCIS:CSI16:1,2011-06-03T04:30:00Z,29.4012,-89.0355,1.0,11.299,11111222 
WAVCIS,ioos:station:WAVCIS:CSI16:1,2011-06-03T04:45:00Z,29.4012,-89.0355,1.0,10.807,11111222 
WAVCIS,ioos:station:WAVCIS:CSI16:1,2011-06-03T05:00:00Z,29.4012,-89.0355,1.0,11.167,11111222 
WAVCIS,ioos:station:WAVCIS:CSI16:1,2011-06-03T05:15:00Z,29.4012,-89.0355,1.0,14.677,11111222 
WAVCIS,ioos:station:WAVCIS:CSI16:1,2011-06-03T05:30:00Z,29.4012,-89.0355,1.0,11.666,11111222 
WAVCIS,ioos:station:WAVCIS:CSI16:1,2011-06-03T05:45:00Z,29.4012,-89.0355,1.0,13.444,11111222 
WAVCIS,ioos:station:WAVCIS:CSI16:1,2011-06-03T06:00:00Z,29.4012,-89.0355,1.0,14.225,11111222 
WAVCIS,ioos:station:WAVCIS:CSI16:1,2011-06-03T06:15:00Z,29.4012,-89.0355,1.0,14.429,11111222 
WAVCIS,ioos:station:WAVCIS:CSI16:1,2011-06-03T06:30:00Z,29.4012,-89.0355,1.0,13.751,11111222 
WAVCIS,ioos:station:WAVCIS:CSI16:1,2011-06-03T06:45:00Z,29.4012,-89.0355,1.0,14.202,11111222 
WAVCIS,ioos:station:WAVCIS:CSI16:1,2011-06-03T07:00:00Z,29.4012,-89.0355,1.0,15.27,11111222 
WAVCIS,ioos:station:WAVCIS:CSI16:1,2011-06-03T07:15:00Z,29.4012,-89.0355,1.0,16.256,11111222 
WAVCIS,ioos:station:WAVCIS:CSI16:1,2011-06-03T07:30:00Z,29.4012,-89.0355,1.0,15.677,11111222 
WAVCIS,ioos:station:WAVCIS:CSI16:1,2011-06-03T07:45:00Z,29.4012,-89.0355,1.0,16.807,11111222 
WAVCIS,ioos:station:WAVCIS:CSI16:1,2011-06-03T08:00:00Z,29.4012,-89.0355,1.0,19.304,11111222 
WAVCIS,ioos:station:WAVCIS:CSI16:1,2011-06-03T08:15:00Z,29.4012,-89.0355,1.0,17.295,11111222 
WAVCIS,ioos:station:WAVCIS:CSI16:1,2011-06-03T08:30:00Z,29.4012,-89.0355,1.0,16.276,11111222 
WAVCIS,ioos:station:WAVCIS:CSI16:1,2011-06-03T08:45:00Z,29.4012,-89.0355,1.0,14.883,11111222 
WAVCIS,ioos:station:WAVCIS:CSI16:1,2011-06-03T09:00:00Z,29.4012,-89.0355,1.0,13.423,11111222 
WAVCIS,ioos:station:WAVCIS:CSI16:1,2011-06-03T09:15:00Z,29.4012,-89.0355,1.0,13.262,11111222 
WAVCIS,ioos:station:WAVCIS:CSI16:1,2011-06-03T09:30:00Z,29.4012,-89.0355,1.0,13.708,11111222 
WAVCIS,ioos:station:WAVCIS:CSI16:1,2011-06-03T09:45:00Z,29.4012,-89.0355,1.0,17.081,11111222 
WAVCIS,ioos:station:WAVCIS:CSI16:1,2011-06-03T10:00:00Z,29.4012,-89.0355,1.0,18.677,11111222 
WAVCIS,ioos:station:WAVCIS:CSI16:1,2011-06-03T10:15:00Z,29.4012,-89.0355,1.0,19.469,11111222 
WAVCIS,ioos:station:WAVCIS:CSI16:1,2011-06-03T10:30:00Z,29.4012,-89.0355,1.0,19.632,11111222 
WAVCIS,ioos:station:WAVCIS:CSI16:1,2011-06-03T10:45:00Z,29.4012,-89.0355,1.0,19.726,11111222 
WAVCIS,ioos:station:WAVCIS:CSI16:1,2011-06-03T11:00:00Z,29.4012,-89.0355,1.0,19.117,11111222 
WAVCIS,ioos:station:WAVCIS:CSI16:1,2011-06-03T11:15:00Z,29.4012,-89.0355,1.0,19.479,11111222 
WAVCIS,ioos:station:WAVCIS:CSI16:1,2011-06-03T11:30:00Z,29.4012,-89.0355,1.0,19.386,11111222 
WAVCIS,ioos:station:WAVCIS:CSI16:1,2011-06-03T11:45:00Z,29.4012,-89.0355,1.0,19.858,11111222 
WAVCIS,ioos:station:WAVCIS:CSI16:1,2011-06-03T12:00:00Z,29.4012,-89.0355,1.0,19.952,11111222 
WAVCIS,ioos:station:WAVCIS:CSI16:1,2011-06-03T12:15:00Z,29.4012,-89.0355,1.0,20.125,11111222 
WAVCIS,ioos:station:WAVCIS:CSI16:1,2011-06-03T12:30:00Z,29.4012,-89.0355,1.0,20.292,11111222 
WAVCIS,ioos:station:WAVCIS:CSI16:1,2011-06-03T12:45:00Z,29.4012,-89.0355,1.0,20.442,11111222 
WAVCIS,ioos:station:WAVCIS:CSI16:1,2011-06-03T13:00:00Z,29.4012,-89.0355,1.0,20.511,11111222 
WAVCIS,ioos:station:WAVCIS:CSI16:1,2011-06-03T13:15:00Z,29.4012,-89.0355,1.0,20.455,11111222 
WAVCIS,ioos:station:WAVCIS:CSI16:1,2011-06-03T13:30:00Z,29.4012,-89.0355,1.0,20.667,11111222 
WAVCIS,ioos:station:WAVCIS:CSI16:1,2011-06-03T13:45:00Z,29.4012,-89.0355,1.0,20.861,11111222 
WAVCIS,ioos:station:WAVCIS:CSI16:1,2011-06-03T14:00:00Z,29.4012,-89.0355,1.0,20.921,11111222 
WAVCIS,ioos:station:WAVCIS:CSI16:1,2011-06-03T14:15:00Z,29.4012,-89.0355,1.0,20.872,11111222 
WAVCIS,ioos:station:WAVCIS:CSI16:1,2011-06-03T14:30:00Z,29.4012,-89.0355,1.0,21.011,11111222 
WAVCIS,ioos:station:WAVCIS:CSI16:1,2011-06-03T14:45:00Z,29.4012,-89.0355,1.0,20.966,11111222 
WAVCIS,ioos:station:WAVCIS:CSI16:1,2011-06-03T15:00:00Z,29.4012,-89.0355,1.0,20.81,11111222 
WAVCIS,ioos:station:WAVCIS:CSI16:1,2011-06-03T15:15:00Z,29.4012,-89.0355,1.0,20.835,11111222 